Location: Aboncourt
(47.7710°N, 5.9826°E)
Time: 03:01:59
(UTC+00:00)

USA 267 - Pass Details

Date: 05 July 2020
Orbit: 1101 x 1107 km, 123.0° (Epoch: 01 August)

Event Time Altitude Azimuth Distance (km) Brightness Sun altitude
Exits shadow 23:21:16 30° 192° (SSW) 1,866 3.9 -19.4°
Maximum altitude 23:23:24 37° 229° (SW) 1,644 3.9 -19.5°
Drops below altitude 10° 23:29:25 10° 295° (WNW) 2,972 5.9 -19.5°
Sets 23:32:09 0° 304° (NW) 3,934 6.7 -19.5°
